Location: Camerons Lookout
(40.9833°S, 175.9333°E)
Time: 20:25:29
(UTC+00:00)

SL-24 DEB - Pass Details

Date: 14 January 2026
Orbit: 630 x 661 km, 92.0° (Epoch: 17 February)

Event Time Altitude Azimuth Distance (km) Brightness Sun altitude
Exits shadow 10:02:06 44° 47° (NE) 882 4.4 -19.4°
Maximum altitude 10:03:10 58° 98° (E) 750 4.3 -19.5°
Drops below altitude 10° 10:07:36 10° 177° (S) 2,054 7.5 -20.0°
Sets 10:09:52 0° 180° (S) 2,974 8.5 -20.3°
